Location: Caltech
(34.1382°N, 118.1253°W)
Time: 14:59:23
(UTC-07:00)

RS-15 - Visible Passes

Search period start: 04 August 2015 00:00
Search period end: 14 August 2015 00:00
Orbit: 1892 x 2153 km, 64.8° (Epoch: 03 August)

Date Brightness Start Highest point End Pass type
(mag) Time Alt. Az. Time Alt. Az. Time Alt. Az.
04 Aug 10.4 01:41:21 10° NNW 01:44:54 11° N 01:48:16 10° N visible
04 Aug 10.3 03:56:42 10° NNW 04:04:11 19° NNE 04:12:20 10° ENE visible
04 Aug 8.0 20:26:56 10° S 20:37:22 57° ESE 20:48:11 10° NE visible
04 Aug 9.1 22:40:12 10° WSW 22:50:15 39° NW 23:00:29 10° NNE visible
05 Aug 10.3 01:02:41 10° NW 01:07:28 13° NNW 01:11:59 10° N visible
05 Aug 10.4 03:20:51 10° N 03:26:59 16° NNE 03:33:45 10° ENE visible
05 Aug 9.2 05:32:10 10° NNW 05:43:28 50° NE 05:55:15 10° SE visible
05 Aug 8.7 22:03:17 10° SW 22:13:49 50° NW 22:24:36 10° NNE visible
06 Aug 10.2 00:24:01 10° NW 00:30:10 15° NNW 00:36:00 10° N visible
06 Aug 10.4 02:44:53 10° N 02:49:40 13° NNE 02:54:55 10° NE visible
06 Aug 9.6 04:56:18 10° NNW 05:06:59 39° NE 05:18:13 10° ESE visible
06 Aug 8.4 21:26:43 10° SW 21:37:31 64° NW 21:48:40 10° NNE visible
06 Aug 10.1 23:45:36 10° WNW 23:52:59 19° NNW 00:00:07 10° NNE visible
07 Aug 10.5 02:08:41 10° N 02:12:14 12° N 02:16:04 10° NNE visible
07 Aug 9.8 04:20:28 10° NNW 04:30:20 31° NE 04:40:49 10° ESE visible
07 Aug 8.1 20:50:29 10° SSW 21:01:23 82° WNW 21:12:41 10° NNE visible
07 Aug 9.9 23:07:31 10° W 23:15:59 23° NW 23:24:17 10° NNE visible
08 Aug 10.5 01:31:49 10° NNW 01:34:45 11° N 01:37:46 10° NNE visible
08 Aug 10.1 03:44:39 10° NNW 03:53:30 25° NE 04:03:02 10° E visible
08 Aug 7.9 20:14:34 10° SSW 20:25:23 78° ESE 20:36:36 10° NNE visible
08 Aug 9.6 22:29:50 10° W 22:39:09 29° NW 22:48:28 10° NNE visible
09 Aug 10.5 00:53:51 10° NNW 00:57:16 11° N 01:00:33 10° N visible
09 Aug 10.2 03:08:50 10° NNW 03:16:30 20° NNE 03:24:52 10° ENE visible
09 Aug 8.7 05:20:14 10° NNW 05:32:00 66° ENE 05:44:11 10° SE visible
09 Aug 9.3 21:52:31 10° WSW 22:02:30 37° NW 22:12:37 10° NNE visible
10 Aug 10.4 00:15:14 10° NW 00:19:50 13° NNW 00:24:10 10° N visible
10 Aug 10.3 02:32:58 10° N 02:39:20 16° NNE 02:46:20 10° ENE visible
10 Aug 9.0 04:44:18 10° NNW 04:55:41 52° NE 05:07:33 10° SE visible
10 Aug 8.9 21:15:33 10° SW 21:26:01 48° NW 21:36:45 10° NNE visible
10 Aug 10.3 23:36:32 10° NW 23:42:30 15° NNW 23:48:09 10° N visible
11 Aug 10.4 01:57:02 10° N 02:02:02 14° NNE 02:07:32 10° NE visible
11 Aug 9.4 04:08:26 10° NNW 04:19:14 41° NE 04:30:34 10° ESE visible
11 Aug 8.5 20:38:55 10° SW 20:49:42 62° NW 21:00:50 10° NNE visible
11 Aug 10.2 22:58:04 10° WNW 23:05:18 18° NNW 23:12:16 10° NNE visible
12 Aug 10.5 01:20:52 10° N 01:24:37 12° N 01:28:40 10° NNE visible
12 Aug 9.6 03:32:36 10° NNW 03:42:36 32° NE 03:53:14 10° ESE visible
12 Aug 8.2 20:02:38 10° SSW 20:13:32 79° WNW 20:24:51 10° NNE visible
12 Aug 10.0 22:19:57 10° W 22:28:16 22° NNW 22:36:25 10° NNE visible
13 Aug 10.5 00:44:07 10° NNW 00:47:08 11° N 00:50:14 10° NNE visible
13 Aug 9.9 02:56:46 10° NNW 03:05:48 26° NE 03:15:29 10° E visible
13 Aug 8.3 05:08:23 10° NNW 05:20:20 85° ENE 05:32:39 10° SSE visible
13 Aug 9.7 21:42:13 10° W 21:51:24 28° NW 22:00:36 10° NNE visible
